When you browse on this site, cookies collect data to enhance your experience and personalize the content and advertising you see.
Visit our Privacy Policy to learn more. By continuing to use the site, you agree to this use of cookies and data.
  • In Schweiz
  • Länderverzeichnis
  • Für 7 Tage
  • Wassertemperatur
  • Satellitenkarten
  • Wetterkarte
  • Widgets
  • user-avatar
    Anmelden

    Stündliche Wetter Tovste

    Heute, 19 Februar, Dienstag

    Zeit Temperatur Niederschläge Wind Luftdruck Luftfeuchtigkeit
    00:00 -5°C° 0 mm 2 m/S 761 mmHg 91%
    01:00 -3°C° 0 mm 1 m/S 761 mmHg 90%
    02:00 -6°C° 0 mm 1 m/S 761 mmHg 90%
    03:00 -7°C° 0 mm 1 m/S 761 mmHg 91%
    04:00 -7°C° 0 mm 0 m/S 761 mmHg 91%
    05:00 -7°C° 0 mm 0 m/S 761 mmHg 91%
    06:00 -7°C° 0 mm 1 m/S 761 mmHg 91%
    07:00 -6°C° 0 mm 1 m/S 761 mmHg 91%
    08:00 -6°C° 0 mm 1 m/S 761 mmHg 91%
    09:00 -3°C° 0 mm 1 m/S 761 mmHg 90%
    10:00 -4°C° 0 mm 2 m/S 761 mmHg 89%
    11:00 -3°C° 0 mm 2 m/S 761 mmHg 88%
    12:00 -2°C° 0 mm 2 m/S 761 mmHg 90%
    13:00 -2°C° 0 mm 2 m/S 761 mmHg 91%
    14:00 -1°C° 0 mm 3 m/S 760 mmHg 93%
    15:00 -2°C° 0 mm 3 m/S 760 mmHg 91%
    16:00 -2°C° 0 mm 3 m/S 759 mmHg 89%
    17:00 -4°C° 0 mm 3 m/S 759 mmHg 87%
    18:00 -4°C° 0 mm 3 m/S 758 mmHg 85%
    19:00 -4°C° 0 mm 3 m/S 758 mmHg 83%
    20:00 -5°C° 0 mm 4 m/S 758 mmHg 81%
    21:00 -5°C° 0 mm 4 m/S 757 mmHg 80%
    22:00 -5°C° 0 mm 4 m/S 757 mmHg 80%
    23:00 -4°C° 0 mm 4 m/S 757 mmHg 80%

    Morgen, 20 Februar, Mittwoch

    Zeit Temperatur Niederschläge Wind Luftdruck Luftfeuchtigkeit
    00:00 -4°C° 0 mm 4 m/S 756 mmHg 80%
    01:00 -4°C° 0 mm 4 m/S 756 mmHg 80%
    02:00 -5°C° 0 mm 5 m/S 755 mmHg 81%
    03:00 -5°C° 0 mm 5 m/S 755 mmHg 82%
    04:00 -5°C° 0 mm 5 m/S 754 mmHg 84%
    05:00 -5°C° 0 mm 5 m/S 754 mmHg 85%
    06:00 -4°C° 0 mm 5 m/S 753 mmHg 87%
    07:00 -2°C° 0 mm 5 m/S 753 mmHg 89%
    08:00 -2°C° 0 mm 5 m/S 753 mmHg 90%
    09:00 -1°C° 0 mm 5 m/S 752 mmHg 93%
    10:00 -1°C° 0 mm 5 m/S 752 mmHg 96%
    11:00 -1°C° 0 mm 4 m/S 752 mmHg 99%
    12:00 0°C° 0 mm 4 m/S 751 mmHg 99%
    13:00 0°C° 0 mm 4 m/S 751 mmHg 99%
    14:00 0°C° 0 mm 4 m/S 751 mmHg 99%
    15:00 0°C° 0.3 mm 4 m/S 751 mmHg 99%
    16:00 0°C° 0.3 mm 4 m/S 751 mmHg 99%
    17:00 -1°C° 0.3 mm 4 m/S 751 mmHg 98%
    18:00 -1°C° 0.1 mm 4 m/S 751 mmHg 98%
    19:00 0°C° 0.1 mm 3 m/S 751 mmHg 97%
    20:00 0°C° 0.1 mm 3 m/S 752 mmHg 97%
    21:00 0°C° 0 mm 3 m/S 752 mmHg 95%
    22:00 0°C° 0 mm 3 m/S 751 mmHg 93%
    23:00 0°C° 0 mm 3 m/S 751 mmHg 92%

    übermorgen, 21 Februar, Donnerstag

    Zeit Temperatur Niederschläge Wind Luftdruck Luftfeuchtigkeit
    00:00 -1°C° 0 mm 4 m/S 751 mmHg 91%
    01:00 -2°C° 0 mm 4 m/S 751 mmHg 90%
    02:00 -2°C° 0 mm 5 m/S 751 mmHg 89%
    03:00 -2°C° 0 mm 5 m/S 751 mmHg 89%
    04:00 -2°C° 0 mm 6 m/S 750 mmHg 89%
    05:00 -2°C° 0 mm 6 m/S 750 mmHg 89%
    06:00 -2°C° 0.1 mm 6 m/S 750 mmHg 87%
    07:00 -2°C° 0.1 mm 6 m/S 751 mmHg 85%
    08:00 -3°C° 0.1 mm 6 m/S 751 mmHg 83%
    09:00 -3°C° 0 mm 6 m/S 751 mmHg 81%
    10:00 -4°C° 0 mm 7 m/S 751 mmHg 78%
    11:00 -4°C° 0 mm 7 m/S 751 mmHg 76%
    12:00 -4°C° 0.1 mm 7 m/S 751 mmHg 76%
    13:00 -4°C° 0.1 mm 7 m/S 751 mmHg 76%
    14:00 -4°C° 0.1 mm 7 m/S 752 mmHg 75%
    15:00 -4°C° 0 mm 6 m/S 752 mmHg 75%
    16:00 -4°C° 0 mm 5 m/S 752 mmHg 76%
    17:00 -5°C° 0 mm 5 m/S 752 mmHg 76%
    18:00 -4°C° 0 mm 4 m/S 752 mmHg 77%
    19:00 -5°C° 0 mm 4 m/S 753 mmHg 77%
    20:00 -5°C° 0 mm 4 m/S 753 mmHg 78%
    21:00 -7°C° 0 mm 4 m/S 753 mmHg 80%
    22:00 -7°C° 0 mm 3 m/S 754 mmHg 81%
    23:00 -7°C° 0 mm 3 m/S 754 mmHg 83%

    22 Februar, Freitag

    Zeit Temperatur Niederschläge Wind Luftdruck Luftfeuchtigkeit
    00:00 -8°C° 0 mm 3 m/S 754 mmHg 84%
    01:00 -8°C° 0 mm 3 m/S 754 mmHg 85%
    02:00 -8°C° 0 mm 3 m/S 754 mmHg 86%
    03:00 -8°C° 0 mm 3 m/S 754 mmHg 86%
    04:00 -8°C° 0 mm 3 m/S 754 mmHg 87%
    05:00 -8°C° 0 mm 3 m/S 754 mmHg 87%
    06:00 -9°C° 0 mm 4 m/S 754 mmHg 86%
    07:00 -9°C° 0 mm 4 m/S 755 mmHg 85%
    08:00 -10°C° 0 mm 5 m/S 755 mmHg 84%
    09:00 -10°C° 0 mm 5 m/S 755 mmHg 83%
    10:00 -10°C° 0 mm 6 m/S 756 mmHg 81%
    11:00 -10°C° 0 mm 6 m/S 756 mmHg 79%
    12:00 -10°C° 0 mm 6 m/S 756 mmHg 78%
    13:00 -11°C° 0 mm 7 m/S 757 mmHg 76%
    14:00 -11°C° 0 mm 7 m/S 757 mmHg 74%
    15:00 -11°C° 0 mm 6 m/S 757 mmHg 75%
    16:00 -11°C° 0 mm 6 m/S 758 mmHg 76%
    17:00 -12°C° 0 mm 6 m/S 758 mmHg 76%
    18:00 -12°C° 0 mm 5 m/S 759 mmHg 77%
    19:00 -12°C° 0 mm 5 m/S 759 mmHg 77%
    20:00 -12°C° 0 mm 4 m/S 760 mmHg 77%
    21:00 -12°C° 0 mm 4 m/S 760 mmHg 79%
    22:00 -12°C° 0 mm 4 m/S 760 mmHg 81%
    23:00 -12°C° 0 mm 4 m/S 760 mmHg 82%

    23 Februar, Samstag

    Zeit Temperatur Niederschläge Wind Luftdruck Luftfeuchtigkeit
    00:00 -12°C° 0 mm 4 m/S 761 mmHg 84%
    01:00 -12°C° 0 mm 4 m/S 761 mmHg 85%
    02:00 -12°C° 0 mm 4 m/S 761 mmHg 86%
    03:00 -14°C° 0 mm 4 m/S 761 mmHg 86%
    04:00 -14°C° 0 mm 4 m/S 761 mmHg 87%
    05:00 -14°C° 0 mm 4 m/S 761 mmHg 87%
    06:00 -14°C° 0 mm 4 m/S 761 mmHg 87%
    07:00 -14°C° 0 mm 4 m/S 762 mmHg 86%
    08:00 -14°C° 0 mm 4 m/S 762 mmHg 86%
    09:00 -13°C° 0 mm 5 m/S 763 mmHg 84%
    10:00 -13°C° 0 mm 5 m/S 763 mmHg 82%
    11:00 -12°C° 0 mm 5 m/S 763 mmHg 80%
    12:00 -12°C° 0 mm 5 m/S 763 mmHg 78%
    13:00 -12°C° 0 mm 5 m/S 763 mmHg 77%
    14:00 -11°C° 0 mm 5 m/S 763 mmHg 76%
    15:00 -11°C° 0.1 mm 5 m/S 763 mmHg 77%
    16:00 -10°C° 0.1 mm 4 m/S 763 mmHg 79%
    17:00 -11°C° 0.1 mm 4 m/S 763 mmHg 81%
    18:00 -11°C° 0.1 mm 4 m/S 763 mmHg 83%
    19:00 -11°C° 0.1 mm 4 m/S 763 mmHg 85%
    20:00 -10°C° 0.1 mm 3 m/S 764 mmHg 88%
    21:00 -10°C° 0.1 mm 3 m/S 764 mmHg 88%
    22:00 -10°C° 0.1 mm 3 m/S 764 mmHg 88%
    23:00 -10°C° 0.1 mm 3 m/S 764 mmHg 88%

    24 Februar, Sonntag

    Zeit Temperatur Niederschläge Wind Luftdruck Luftfeuchtigkeit
    00:00 -12°C° 0 mm 3 m/S 764 mmHg 89%
    01:00 -13°C° 0 mm 3 m/S 764 mmHg 89%
    02:00 -13°C° 0 mm 3 m/S 764 mmHg 89%
    03:00 -14°C° 0 mm 3 m/S 764 mmHg 89%
    04:00 -14°C° 0 mm 3 m/S 764 mmHg 89%
    05:00 -15°C° 0 mm 3 m/S 764 mmHg 90%
    06:00 -15°C° 0 mm 3 m/S 765 mmHg 89%
    07:00 -15°C° 0 mm 3 m/S 765 mmHg 89%
    08:00 -16°C° 0 mm 4 m/S 765 mmHg 88%
    09:00 -15°C° 0 mm 4 m/S 765 mmHg 86%
    10:00 -14°C° 0 mm 4 m/S 766 mmHg 84%
    11:00 -12°C° 0 mm 4 m/S 766 mmHg 83%
    12:00 -11°C° 0 mm 4 m/S 766 mmHg 82%
    13:00 -11°C° 0 mm 4 m/S 765 mmHg 82%
    14:00 -11°C° 0 mm 5 m/S 765 mmHg 81%
    15:00 -11°C° 0 mm 5 m/S 765 mmHg 82%
    16:00 -10°C° 0 mm 4 m/S 766 mmHg 83%
    17:00 -11°C° 0 mm 4 m/S 766 mmHg 84%
    18:00 -11°C° 0 mm 4 m/S 766 mmHg 84%
    19:00 -11°C° 0 mm 4 m/S 766 mmHg 85%
    20:00 -11°C° 0 mm 4 m/S 767 mmHg 86%
    21:00 -12°C° 0 mm 4 m/S 767 mmHg 88%
    22:00 -13°C° 0 mm 3 m/S 767 mmHg 89%
    23:00 -14°C° 0 mm 3 m/S 767 mmHg 91%
    Mehr zeigen